This demonstration page uses our WeatherBlox Daily Observations layout. Learn more.

Hourly Observations for September 22, 2018

Temp ( °F °C ) Dew Point ( °F °C ) Humidity (%) Winds ( mph kmh ) Pressure ( in mb ) Visibility ( mi km ) Precip ( " mm )
12:15 am 00:15 Clear 47 8.5 43 6.3 86 86 E 5 7 30.36 1028 10 16.09344 0 0
12:35 am 00:35 Clear 47 8.2 43 6.2 87 87 E 3 6 30.36 1028 10 16.09344 0 0
12:55 am 00:55 Clear 46 7.8 43 6.1 89 89 ESE 5 7 30.36 1028 10 16.09344 0 0
1:15 am 01:15 Clear 45 7.2 43 6 92 92 SE 3 6 30.36 1028 10 16.09344 0 0
1:35 am 01:35 Clear 44 6.7 41 5.2 90 90 ESE 5 7 30.36 1028 10 16.09344 0 0
1:55 am 01:55 Clear 43 6.1 42 5.5 96 96 ESE 5 7 30.36 1028 10 16.09344 0 0
2:15 am 02:15 Clear 44 6.5 42 5.5 93 93 SE 6 9 30.33 1027 10 16.09344 0 0
2:35 am 02:35 Clear 44 6.5 42 5.7 95 95 SE 3 6 30.33 1027 10 16.09344 0 0
2:55 am 02:55 Clear 44 6.5 42 5.7 95 95 SE 3 6 30.33 1027 10 16.09344 0 0
3:15 am 03:15 Clear 43 6 42 5.3 95 95 SSE 3 6 30.33 1027 10 16.09344 0 0
3:35 am 03:35 Clear 44 6.5 42 5.6 94 94 SSE 5 7 30.33 1027 10 16.09344 0 0
3:55 am 03:55 Clear 44 6.5 42 5.7 95 95 SE 5 7 30.33 1027 10 16.09344 0 0
4:15 am 04:15 Clear 44 6.5 42 5.7 95 95 SE 6 9 30.33 1027 10 16.09344 0 0
4:35 am 04:35 Clear 44 6.5 43 6 97 97 SSE 6 9 30.33 1027 10 16.09344 0 0
4:55 am 04:55 Clear 44 6.5 43 6 97 97 SSE 6 9 30.3 1026 10 16.09344 0 0
5:15 am 05:15 Clear 43 6.2 42 5.7 97 97 SSE 5 7 30.3 1026 10 16.09344 0 0
5:35 am 05:35 Clear 44 6.5 43 6 97 97 SSE 6 9 30.3 1026 10 16.09344 0 0
5:55 am 05:55 Clear 44 6.7 43 6.1 96 96 SSE 6 9 30.3 1026 10 16.09344 0 0
6:15 am 06:15 Clear 44 6.5 43 6 97 97 SSE 5 7 30.3 1026 10 16.09344 0 0
6:35 am 06:35 Clear 44 6.5 43 6 97 97 SSE 5 7 30.3 1026 10 16.09344 0 0
6:55 am 06:55 Clear 43 6.3 43 6 98 98 SSE 6 9 30.3 1026 10 16.09344 0 0
7:15 am 07:15 Clear 44 6.5 43 6.1 97 97 S 7 11 30.3 1026 10 16.09344 0 0
7:35 am 07:35 Sunny 44 6.6 43 6.2 97 97 S 7 11 30.3 1026 10 16.09344 0 0
7:55 am 07:55 Sunny 45 7 44 6.5 97 97 S 7 11 30.3 1026 10 16.09344 0 0
8:15 am 08:15 Sunny 46 7.6 45 7 96 96 S 7 11 30.3 1026 10 16.09344 0 0
8:35 am 08:35 Sunny 47 8.1 45 7.2 94 94 S 10 17 30.3 1026 10 16.09344 0 0
8:55 am 08:55 Sunny 48 8.9 46 7.8 93 93 SSE 13 20 30.27 1025 10 16.09344 0 0
9:15 am 09:15 Sunny 50 10 47 8.4 90 90 S 13 20 30.27 1025 10 16.09344 0 0
9:35 am 09:35 Sunny 51 10.7 47 8.5 86 86 S 14 22 30.24 1024 10 16.09344 0 0
9:55 am 09:55 Sunny 53 11.6 48 8.8 83 83 S 14 22 30.21 1023 10 16.09344 0 0
10:15 am 10:15 Sunny 55 12.7 49 9.3 80 80 S 13 20 30.21 1023 10 16.09344 0 0
10:35 am 10:35 Sunny 57 14 48 9.1 73 73 S 15 24 30.21 1023 10 16.09344 0 0
10:55 am 10:55 Sunny 58 14.4 48 9.1 71 71 S 14 22 30.21 1023 10 16.09344 0 0
11:15 am 11:15 Sunny 60 15.5 48 9 65 65 S 13 20 30.18 1022 10 16.09344 0 0
11:35 am 11:35 Sunny 61 16.1 48 9.1 63 63 S 12 19 30.18 1022 10 16.09344 0 0
11:55 am 11:55 Sunny 62 16.8 49 9.3 61 61 S 13 20 30.15 1021 10 16.09344 0 0
12:15 pm 12:15 Sunny 63 17.2 48 9 59 59 S 15 24 30.15 1021 10 16.09344 0 0
12:35 pm 12:35 Sunny 64 17.8 48 9 57 57 S 16 26 30.12 1020 10 16.09344 0 0
12:55 pm 12:55 Sunny 65 18.6 48 8.9 53 53 S 15 24 30.09 1019 10 16.09344 0 0
1:15 pm 13:15 Sunny 66 19.1 48 9.1 52 52 S 12 19 30.09 1019 10 16.09344 0 0
1:35 pm 13:35 Sunny 67 19.5 48 9 51 51 S 14 22 30.06 1018 10 16.09344 0 0
1:55 pm 13:55 Sunny 68 19.9 48 8.7 49 49 SSE 16 26 30.06 1018 10 16.09344 0 0
2:15 pm 14:15 Sunny 69 20.5 47 8.2 45 45 S 16 26 30.06 1018 10 16.09344 0 0
2:35 pm 14:35 Sunny 70 20.9 47 8.5 45 45 S 15 24 30.03 1017 10 16.09344 0 0
2:55 pm 14:55 Sunny 71 21.6 47 8.1 42 42 SSE 16 26 30.03 1017 10 16.09344 0 0
3:15 pm 15:15 Sunny 71 21.5 46 7.5 41 41 S 15 24 30 1016 10 16.09344 0 0
3:35 pm 15:35 Sunny 72 22.1 47 8.3 41 41 SSE 18 30 30 1016 10 16.09344 0 0
3:55 pm 15:55 Sunny 72 22.3 46 8 40 40 S 15 24 30 1016 10 16.09344 0 0
4:15 pm 16:15 Sunny 72 22.2 47 8.4 41 41 SSE 15 24 30 1016 10 16.09344 0 0
4:35 pm 16:35 Sunny 72 22.4 47 8.5 41 41 SSE 17 28 29.97 1015 10 16.09344 0 0
4:55 pm 16:55 Sunny 72 22.3 47 8.1 40 40 S 16 26 29.97 1015 10 16.09344 0 0
5:15 pm 17:15 Sunny 72 22.3 47 8.2 41 41 S 13 20 29.97 1015 10 16.09344 0 0
5:35 pm 17:35 Sunny 72 22.2 47 8.3 41 41 S 16 26 29.97 1015 10 16.09344 0 0
5:55 pm 17:55 Sunny 72 22 47 8.3 42 42 S 17 28 29.97 1015 10 16.09344 0 0
6:15 pm 18:15 Sunny 71 21.7 46 7.7 41 41 S 15 24 29.97 1015 10 16.09344 0 0
6:35 pm 18:35 Sunny 70 21.2 46 8 43 43 S 12 19 29.97 1015 10 16.09344 0 0
6:55 pm 18:55 Sunny 69 20.7 47 8.1 44 44 S 13 20 29.97 1015 10 16.09344 0 0
7:15 pm 19:15 Sunny 68 19.9 46 8 46 46 S 9 15 30 1016 10 16.09344 0 0
7:35 pm 19:35 Clear 65 18.6 47 8.3 51 51 SSE 8 13 30 1016 10 16.09344 0 0
7:55 pm 19:55 Clear 62 16.5 48 9.1 62 62 SSE 7 11 30.03 1017 10 16.09344 0 0
8:15 pm 20:15 Clear 61 16.3 49 9.4 64 64 SSE 8 13 30.03 1017 10 16.09344 0 0
8:35 pm 20:35 Clear 61 16.1 48 9.1 63 63 SSE 9 15 30.03 1017 10 16.09344 0 0
8:55 pm 20:55 Clear 60 15.7 48 9 65 65 SSE 7 11 30.03 1017 10 16.09344 0 0
9:15 pm 21:15 Clear 59 14.8 48 9 68 68 SSE 7 11 30.03 1017 10 16.09344 0 0
9:35 pm 21:35 Clear 58 14.6 48 9 69 69 SSE 8 13 30.03 1017 10 16.09344 0 0
9:55 pm 21:55 Clear 57 14 48 8.9 72 72 SSE 9 15 30.03 1017 10 16.09344 0 0
10:15 pm 22:15 Clear 56 13.1 48 9 76 76 SSE 9 15 30.06 1018 10 16.09344 0 0
10:35 pm 22:35 Clear 56 13.1 48 9.1 77 77 SSE 10 17 30.06 1018 10 16.09344 0 0
10:55 pm 22:55 Clear 56 13.2 49 9.3 77 77 S 10 17 30.03 1017 10 16.09344 0 0
11:15 pm 23:15 Clear 56 13.5 49 9.7 78 78 S 12 19 30.03 1017 10 16.09344 0 0
11:35 pm 23:35 Clear 56 13.4 49 9.7 78 78 S 8 13 30.03 1017 10 16.09344 0 0
11:55 pm 23:55 Clear 55 12.7 50 9.8 83 83 S 6 9 30.06 1018 10 16.09344 0 0

Powered by AerisWeather